TimeHST,TemperatureF,Dew PointF,Humidity,Sea Level PressureIn,VisibilityMPH,Wind Direction,Wind SpeedMPH,Gust SpeedMPH,PrecipitationIn,Events,Conditions,WindDirDegrees,DateUTC
12:00 AM,-9999,-9999,N/A,-9999,-9999.0,North,-9999.0,-,N/A,,Unknown,0,2013-03-29 10:00:00
12:16 AM,71.6,68.0,88,30.09,6.2,East,11.5,-,N/A,,Scattered Clouds,80,2013-03-29 10:16:00
12:57 AM,71.6,68.0,88,30.06,10.0,East,10.4,-,N/A,,Mostly Cloudy,80,2013-03-29 10:57:00
1:37 AM,69.8,66.2,88,30.09,6.2,ENE,6.9,16.1,N/A,,Mostly Cloudy,70,2013-03-29 11:37:00
1:47 AM,69.8,66.2,88,30.09,6.2,East,10.4,-,N/A,,Overcast,90,2013-03-29 11:47:00
1:57 AM,69.8,66.0,88,30.06,10.0,ENE,4.6,-,0.01,,Mostly Cloudy,70,2013-03-29 11:57:00
2:16 AM,69.8,66.2,88,30.06,6.2,East,11.5,17.3,N/A,,Overcast,80,2013-03-29 12:16:00
2:52 AM,69.8,66.2,88,30.06,10.0,East,8.1,-,N/A,,Mostly Cloudy,80,2013-03-29 12:52:00
2:57 AM,69.8,66.6,89,30.03,10.0,ENE,9.2,-,N/A,,Scattered Clouds,70,2013-03-29 12:57:00
3:57 AM,69.8,66.9,91,30.03,10.0,East,10.4,-,N/A,,Scattered Clouds,80,2013-03-29 13:57:00
4:57 AM,69.8,66.9,91,30.03,10.0,ENE,10.4,-,N/A,,Mostly Cloudy,60,2013-03-29 14:57:00
5:26 AM,-9999,-9999,N/A,-9999,6.2,NE,12.7,19.6,N/A,,Mostly Cloudy,50,2013-03-29 15:26:00
5:44 AM,69.8,69.8,100,30.06,6.2,ENE,12.7,20.7,N/A,,Mostly Cloudy,60,2013-03-29 15:44:00
5:57 AM,69.8,69.1,98,30.03,10.0,ENE,10.4,18.4,N/A,,Mostly Cloudy,60,2013-03-29 15:57:00
6:23 AM,71.6,68.0,88,30.07,6.2,ENE,9.2,17.3,N/A,,Mostly Cloudy,60,2013-03-29 16:23:00
6:34 AM,71.6,68.0,88,30.07,6.2,ENE,10.4,17.3,N/A,,Mostly Cloudy,60,2013-03-29 16:34:00
6:57 AM,71.6,68.0,88,30.04,10.0,ENE,10.4,17.3,N/A,,Mostly Cloudy,60,2013-03-29 16:57:00
7:57 AM,71.6,66.0,82,30.04,10.0,ENE,9.2,17.3,N/A,,Mostly Cloudy,60,2013-03-29 17:57:00
8:57 AM,75.2,66.9,75,30.06,10.0,ENE,10.4,18.4,N/A,,Overcast,70,2013-03-29 18:57:00
9:57 AM,75.2,66.9,75,30.05,10.0,ENE,12.7,19.6,N/A,,Scattered Clouds,70,2013-03-29 19:57:00
10:57 AM,75.2,64.9,70,30.05,10.0,East,12.7,21.9,0.00,,Overcast,80,2013-03-29 20:57:00
11:57 AM,75.2,66.0,73,-9999,10.0,East,13.8,18.4,N/A,,Overcast,80,2013-03-29 21:57:00
12:57 PM,77.0,66.0,69,-9999,10.0,ENE,11.5,20.7,N/A,,Overcast,70,2013-03-29 22:57:00
1:57 PM,78.8,64.9,62,-9999,10.0,ENE,11.5,18.4,N/A,,Scattered Clouds,70,2013-03-29 23:57:00
2:57 PM,78.8,64.0,60,30.00,10.0,ENE,9.2,17.3,N/A,,Scattered Clouds,70,2013-03-30 00:57:00
3:57 PM,78.8,64.0,60,30.00,10.0,ENE,10.4,-,N/A,,Scattered Clouds,60,2013-03-30 01:57:00
4:57 PM,77.0,63.0,62,30.01,10.0,ENE,8.1,-,N/A,,Overcast,60,2013-03-30 02:57:00
5:57 PM,77.0,63.0,62,30.03,10.0,ENE,6.9,-,N/A,,Overcast,70,2013-03-30 03:57:00
6:57 PM,75.2,62.1,64,30.04,10.0,ENE,4.6,-,N/A,,Overcast,70,2013-03-30 04:57:00
7:47 PM,75.2,62.6,65,30.05,6.2,ENE,4.6,-,N/A,,Overcast,70,2013-03-30 05:47:00
7:57 PM,75.2,63.0,66,30.05,10.0,East,3.5,-,N/A,,Overcast,90,2013-03-30 05:57:00
8:31 PM,73.4,62.6,69,30.07,6.2,East,3.5,-,N/A,,Overcast,80,2013-03-30 06:31:00
8:57 PM,73.4,62.1,68,30.06,10.0,East,3.5,-,N/A,,Overcast,90,2013-03-30 06:57:00
9:57 PM,71.6,62.1,72,30.07,10.0,Calm,Calm,-,N/A,,Mostly Cloudy,0,2013-03-30 07:57:00
10:57 PM,71.6,62.1,72,30.07,10.0,Calm,Calm,-,N/A,,Overcast,0,2013-03-30 08:57:00
11:31 PM,71.6,62.6,73,30.08,6.2,Calm,Calm,-,N/A,,Overcast,0,2013-03-30 09:31:00
11:41 PM,71.6,62.6,73,30.07,6.2,Calm,Calm,-,N/A,,Overcast,0,2013-03-30 09:41:00
11:57 PM,71.6,63.0,74,30.05,10.0,Calm,Calm,-,N/A,,Overcast,0,2013-03-30 09:57:00